RH
13 12 12 10 10 9 8 8 7 6 5 4 4 6 12 17 21 20 29 31 36 36 32 37 43 48 51 47 45 44 44 41 40 40 42 48 46 38 31 36 41 40 38 41 40
14 13 12 12 11 10 9 8 7 7 6 5 4 4 6 12 18 19 23 27 32 33 33 37 39 45 48 45 44 47 41 41 41 38 39 40 47 46 38 35 40 42 40 39 40
14 13 13 12 11 11 9 8 8 7 6 5 5 4 4 7 13 16 18 21 28 30 30 34 38 43 44 44 44 44 42 41 40 38 41 42 42 42 49 45 32 37 37 39 39
16 15 13 12 12 11 10 9 8 7 6 5 5 4 4 5 10 12 17 17 24 28 29 32 37 40 43 44 44 47 45 40 42 43 42 43 44 40 42 46 38 33 33 37 39
17 16 15 14 12 11 10 9 8 7 6 5 5 5 4 4 6 9 15 16 22 25 28 31 36 36 39 43 43 47 46 42 41 44 45 44 43 43 42 38 40 39 36 39 40
17 16 15 15 14 12 10 9 8 7 5 4 4 5 5 4 4 6 10 15 20 24 25 30 33 36 38 42 43 44 43 43 43 44 44 44 45 41 41 43 33 40 43 45 43
16 16 16 15 14 14 12 10 8 8 6 5 4 4 5 5 4 5 7 14 15 22 22 24 30 31 33 40 41 41 41 41 42 42 43 44 47 48 41 39 41 36 39 45 47
14 14 15 15 15 14 13 11 9 9 9 7 5 4 5 4 4 4 5 8 13 17 21 22 26 29 33 36 37 38 38 41 38 40 41 42 49 48 47 41 36 43 43 37 42
11 12 14 15 15 15 13 12 11 10 9 9 8 5 4 4 5 5 6 7 10 15 17 20 23 28 30 34 39 38 42 39 37 37 41 42 47 49 49 47 38 38 44 44 42
15 12 11 12 16 15 14 13 12 11 11 10 10 9 5 6 7 5 6 6 8 11 16 18 22 26 27 32 38 39 39 38 35 36 38 40 44 47 49 48 45 40 41 44 46
18 16 13 11 12 16 15 14 14 14 12 11 11 9 7 7 5 6 6 6 7 8 13 17 19 23 28 30 30 34 35 36 35 33 39 40 42 43 47 49 45 44 41 44 45
18 16 15 13 13 13 16 17 17 16 14 11 10 9 8 7 8 6 6 7 7 7 10 13 15 21 28 30 26 28 31 33 34 34 34 36 38 40 41 43 45 44 45 43 45
17 18 16 14 14 14 15 18 18 17 15 13 13 11 9 8 8 8 6 6 7 7 8 11 14 19 21 25 24 27 29 33 29 30 33 28 35 37 40 43 46 45 48 48 45
18 17 18 16 14 16 17 17 18 16 15 17 13 13 10 10 8 9 6 7 7 7 7 9 13 14 19 22 26 32 31 25 26 28 30 27 35 34 38 40 43 44 45 46 45
20 20 19 19 16 17 18 16 18 18 19 18 15 13 11 10 11 9 6 7 8 7 7 7 9 12 16 18 24 28 25 24 24 24 26 31 31 40 33 36 37 41 42 42 40
15 20 19 22 19 17 18 17 18 17 17 20 18 17 12 11 10 10 7 7 8 8 7 8 7 7 11 15 18 23 22 21 23 24 26 27 32 29 35 33 31 35 38 35 34
11 15 20 20 25 20 18 19 19 16 16 23 21 18 15 13 11 10 9 9 7 8 8 7 8 7 6 8 10 13 12 18 24 28 22 29 29 28 33 28 25 28 31 30 32
8 9 18 18 23 22 21 19 20 14 22 24 22 23 19 16 15 12 10 9 8 8 9 9 8 8 7 7 8 8 11 15 25 25 20 24 28 28 27 25 23 26 29 31 32
9 7 11 20 24 22 25 20 18 15 21 22 25 24 24 20 17 14 13 11 9 8 10 10 9 8 8 7 8 10 12 13 17 20 21 19 25 23 24 25 25 29 30 32 33
10 10 14 19 25 24 25 22 18 17 21 22 27 25 26 23 20 19 15 12 12 9 9 11 11 9 8 8 8 10 11 13 13 20 24 18 21 20 23 23 25 29 29 31 36
12 17 17 18 23 25 26 23 19 18 21 24 28 25 25 23 21 19 18 14 11 10 10 10 9 11 9 8 10 9 11 11 16 18 19 20 18 16 18 21 24 28 30 33 36
15 19 19 20 23 25 28 24 19 21 21 25 29 28 27 24 21 19 18 16 12 12 10 9 10 13 9 10 11 11 12 14 17 20 16 15 15 15 19 25 25 28 28 34 36
17 20 21 23 24 23 27 27 22 24 26 28 27 26 27 25 24 18 18 17 15 13 12 12 10 12 13 10 9 10 12 15 15 13 13 16 13 15 21 23 26 29 33 36 36
19 24 23 25 25 25 29 32 29 25 27 31 30 31 31 27 26 25 24 20 17 16 16 15 12 11 12 13 12 10 12 13 14 12 13 14 15 21 21 23 26 29 36 37 33
21 26 31 28 27 29 30 36 33 27 29 33 32 33 33 29 30 30 28 30 22 21 17 14 15 11 17 16 15 15 13 13 13 13 13 13 14 20 23 23 27 34 38 36 34
27 26 27 31 28 29 31 33 37 33 32 35 37 35 38 35 33 35 34 33 24 23 17 12 15 16 15 16 17 17 18 14 14 14 14 14 15 23 23 26 30 34 39 38 38
25 25 27 27 27 30 30 29 37 41 33 34 40 38 40 38 34 34 34 34 28 24 20 12 17 19 19 19 22 21 21 20 16 15 15 15 20 24 25 28 33 38 39 38 42